• In Hungary
  • List of Countries
  • For 7 days
  • Water Temperature
  • Satellite Maps
  • Weather Map
  • News
  • Weather Widgets
  • user-avatar
    Login

    Hourly Weather Denezhnikovo

    Today, 21 August, Tuesday

    Time Temperature Precipitation Wind Pressure Humidity
    00:00 +18°C° 0 mm 2 mps 744 mmHg 78%
    01:00 +18°C° 0 mm 2 mps 744 mmHg 79%
    02:00 +18°C° 0 mm 3 mps 743 mmHg 80%
    03:00 +17°C° 0 mm 2 mps 743 mmHg 81%
    04:00 +17°C° 0.1 mm 3 mps 743 mmHg 82%
    05:00 +17°C° 0.1 mm 3 mps 743 mmHg 83%
    06:00 +17°C° 0.1 mm 3 mps 742 mmHg 84%
    07:00 +20°C° 0 mm 4 mps 742 mmHg 77%
    08:00 +22°C° 0 mm 5 mps 742 mmHg 70%
    09:00 +24°C° 0 mm 6 mps 742 mmHg 63%
    10:00 +26°C° 0 mm 7 mps 741 mmHg 58%
    11:00 +27°C° 0 mm 7 mps 741 mmHg 53%
    12:00 +28°C° 0 mm 8 mps 741 mmHg 48%
    13:00 +28°C° 0.3 mm 8 mps 740 mmHg 51%
    14:00 +28°C° 0.3 mm 8 mps 740 mmHg 53%
    15:00 +28°C° 0.3 mm 8 mps 739 mmHg 55%
    16:00 +26°C° 1.5 mm 7 mps 739 mmHg 63%
    17:00 +23°C° 1.5 mm 7 mps 739 mmHg 70%
    18:00 +22°C° 1.5 mm 6 mps 739 mmHg 78%
    19:00 +21°C° 1.1 mm 5 mps 739 mmHg 82%
    20:00 +20°C° 1.1 mm 4 mps 739 mmHg 85%
    21:00 +18°C° 1.1 mm 4 mps 739 mmHg 88%
    22:00 +17°C° 0 mm 4 mps 739 mmHg 88%
    23:00 +15°C° 0 mm 4 mps 740 mmHg 88%

    Tomorrow, 22 August, Wednesday

    Time Temperature Precipitation Wind Pressure Humidity
    00:00 +14°C° 0 mm 4 mps 740 mmHg 87%
    01:00 +13°C° 0 mm 4 mps 741 mmHg 88%
    02:00 +13°C° 0 mm 3 mps 741 mmHg 88%
    03:00 +12°C° 0 mm 3 mps 741 mmHg 89%
    04:00 +11°C° 0 mm 3 mps 742 mmHg 89%
    05:00 +11°C° 0 mm 3 mps 742 mmHg 88%
    06:00 +11°C° 0 mm 3 mps 743 mmHg 88%
    07:00 +12°C° 0 mm 4 mps 743 mmHg 80%
    08:00 +13°C° 0 mm 5 mps 743 mmHg 73%
    09:00 +15°C° 0 mm 5 mps 743 mmHg 65%
    10:00 +16°C° 0 mm 6 mps 744 mmHg 60%
    11:00 +17°C° 0 mm 6 mps 744 mmHg 54%
    12:00 +19°C° 0 mm 6 mps 744 mmHg 49%
    13:00 +20°C° 0 mm 6 mps 744 mmHg 48%
    14:00 +20°C° 0 mm 6 mps 745 mmHg 46%
    15:00 +20°C° 0 mm 6 mps 745 mmHg 45%
    16:00 +20°C° 0 mm 5 mps 745 mmHg 48%
    17:00 +19°C° 0 mm 4 mps 746 mmHg 51%
    18:00 +19°C° 0 mm 4 mps 746 mmHg 54%
    19:00 +17°C° 0 mm 3 mps 746 mmHg 57%
    20:00 +16°C° 0 mm 3 mps 747 mmHg 61%
    21:00 +14°C° 0 mm 3 mps 747 mmHg 64%
    22:00 +13°C° 0 mm 3 mps 748 mmHg 66%
    23:00 +12°C° 0 mm 3 mps 748 mmHg 69%

    Day after tomorrow, 23 August, Thursday

    Time Temperature Precipitation Wind Pressure Humidity
    00:00 +11°C° 0 mm 3 mps 749 mmHg 71%
    01:00 +10°C° 0 mm 3 mps 749 mmHg 73%
    02:00 +10°C° 0 mm 2 mps 749 mmHg 74%
    03:00 +9°C° 0 mm 2 mps 749 mmHg 76%
    04:00 +9°C° 0 mm 2 mps 750 mmHg 77%
    05:00 +9°C° 0 mm 2 mps 750 mmHg 78%
    06:00 +9°C° 0 mm 2 mps 750 mmHg 79%
    07:00 +12°C° 0 mm 2 mps 751 mmHg 72%
    08:00 +14°C° 0 mm 2 mps 751 mmHg 65%
    09:00 +16°C° 0 mm 2 mps 751 mmHg 58%
    10:00 +17°C° 0 mm 2 mps 751 mmHg 53%
    11:00 +18°C° 0 mm 3 mps 751 mmHg 47%
    12:00 +20°C° 0 mm 3 mps 751 mmHg 41%
    13:00 +20°C° 0 mm 3 mps 751 mmHg 40%
    14:00 +20°C° 0 mm 3 mps 751 mmHg 39%
    15:00 +21°C° 0 mm 3 mps 751 mmHg 37%
    16:00 +20°C° 0 mm 2 mps 751 mmHg 41%
    17:00 +20°C° 0 mm 2 mps 751 mmHg 45%
    18:00 +19°C° 0 mm 2 mps 750 mmHg 49%
    19:00 +18°C° 0 mm 2 mps 751 mmHg 53%
    20:00 +16°C° 0 mm 1 mps 751 mmHg 57%
    21:00 +14°C° 0 mm 1 mps 751 mmHg 61%
    22:00 +14°C° 0 mm 1 mps 751 mmHg 62%
    23:00 +13°C° 0 mm 1 mps 751 mmHg 63%

    24 August, Friday

    Time Temperature Precipitation Wind Pressure Humidity
    00:00 +13°C° 0 mm 1 mps 751 mmHg 65%
    01:00 +12°C° 0 mm 1 mps 751 mmHg 66%
    02:00 +12°C° 0 mm 1 mps 751 mmHg 68%
    03:00 +12°C° 0 mm 1 mps 751 mmHg 69%
    04:00 +12°C° 0 mm 1 mps 751 mmHg 71%
    05:00 +11°C° 0 mm 1 mps 751 mmHg 72%
    06:00 +11°C° 0 mm 1 mps 751 mmHg 73%
    07:00 +13°C° 0 mm 1 mps 751 mmHg 67%
    08:00 +16°C° 0 mm 1 mps 751 mmHg 60%
    09:00 +19°C° 0 mm 1 mps 751 mmHg 54%
    10:00 +19°C° 0 mm 2 mps 751 mmHg 50%
    11:00 +20°C° 0 mm 2 mps 751 mmHg 46%
    12:00 +23°C° 0 mm 2 mps 751 mmHg 42%
    13:00 +23°C° 0 mm 2 mps 751 mmHg 41%
    14:00 +24°C° 0 mm 2 mps 750 mmHg 40%
    15:00 +24°C° 0 mm 2 mps 750 mmHg 39%
    16:00 +24°C° 0 mm 2 mps 750 mmHg 43%
    17:00 +23°C° 0 mm 2 mps 749 mmHg 46%
    18:00 +23°C° 0 mm 1 mps 749 mmHg 50%
    19:00 +21°C° 0 mm 1 mps 749 mmHg 54%
    20:00 +19°C° 0 mm 1 mps 749 mmHg 58%
    21:00 +16°C° 0 mm 1 mps 749 mmHg 62%
    22:00 +15°C° 0 mm 1 mps 749 mmHg 63%
    23:00 +15°C° 0 mm 1 mps 749 mmHg 65%

    25 August, Saturday

    Time Temperature Precipitation Wind Pressure Humidity
    00:00 +14°C° 0 mm 1 mps 749 mmHg 66%
    01:00 +14°C° 0 mm 1 mps 749 mmHg 67%
    02:00 +14°C° 0 mm 1 mps 749 mmHg 68%
    03:00 +13°C° 0 mm 2 mps 749 mmHg 70%
    04:00 +13°C° 0 mm 2 mps 749 mmHg 70%
    05:00 +13°C° 0 mm 2 mps 749 mmHg 71%
    06:00 +13°C° 0 mm 2 mps 749 mmHg 72%
    07:00 +15°C° 0 mm 2 mps 750 mmHg 65%
    08:00 +17°C° 0 mm 2 mps 750 mmHg 59%
    09:00 +20°C° 0 mm 2 mps 750 mmHg 53%
    10:00 +21°C° 0 mm 2 mps 750 mmHg 48%
    11:00 +24°C° 0 mm 3 mps 750 mmHg 44%
    12:00 +25°C° 0 mm 3 mps 750 mmHg 40%
    13:00 +25°C° 0 mm 3 mps 749 mmHg 39%
    14:00 +26°C° 0 mm 3 mps 749 mmHg 38%
    15:00 +26°C° 0 mm 3 mps 749 mmHg 37%
    16:00 +26°C° 0 mm 3 mps 749 mmHg 41%
    17:00 +25°C° 0 mm 2 mps 748 mmHg 45%
    18:00 +24°C° 0 mm 2 mps 748 mmHg 49%
    19:00 +21°C° 0 mm 2 mps 748 mmHg 53%
    20:00 +19°C° 0 mm 2 mps 748 mmHg 56%
    21:00 +17°C° 0 mm 2 mps 748 mmHg 60%
    22:00 +17°C° 0 mm 2 mps 748 mmHg 61%
    23:00 +16°C° 0 mm 2 mps 749 mmHg 63%

    26 August, Sunday

    Time Temperature Precipitation Wind Pressure Humidity
    00:00 +16°C° 0 mm 2 mps 749 mmHg 64%
    01:00 +15°C° 0 mm 2 mps 749 mmHg 66%
    02:00 +15°C° 0 mm 2 mps 749 mmHg 67%
    03:00 +15°C° 0 mm 2 mps 749 mmHg 69%
    04:00 +15°C° 0 mm 2 mps 749 mmHg 70%
    05:00 +14°C° 0 mm 2 mps 749 mmHg 71%
    06:00 +14°C° 0 mm 2 mps 749 mmHg 72%
    07:00 +16°C° 0 mm 2 mps 749 mmHg 66%
    08:00 +19°C° 0 mm 2 mps 749 mmHg 60%
    09:00 +21°C° 0 mm 2 mps 750 mmHg 54%
    10:00 +24°C° 0 mm 3 mps 749 mmHg 50%
    11:00 +25°C° 0 mm 3 mps 749 mmHg 45%
    12:00 +27°C° 0 mm 3 mps 749 mmHg 40%
    13:00 +27°C° 0 mm 3 mps 749 mmHg 39%
    14:00 +28°C° 0 mm 3 mps 749 mmHg 38%
    15:00 +28°C° 0 mm 3 mps 749 mmHg 37%
    16:00 +27°C° 0 mm 2 mps 748 mmHg 41%
    17:00 +27°C° 0 mm 2 mps 748 mmHg 45%
    18:00 +26°C° 0 mm 1 mps 748 mmHg 50%
    19:00 +24°C° 0 mm 2 mps 748 mmHg 53%
    20:00 +21°C° 0 mm 2 mps 748 mmHg 57%
    21:00 +19°C° 0 mm 2 mps 748 mmHg 61%
    22:00 +19°C° 0 mm 2 mps 749 mmHg 63%
    23:00 +18°C° 0 mm 2 mps 749 mmHg 66%
    Show more